Weather History for Moron de la Frontera, Spain

Change the Weather History Date:

Saturday, October 6, 2012

  Actual Average Record
Temperature  
Mean Temperature 75 °F -  
Max Temperature 84 °F 74 °F 93 °F (2011)
Min Temperature 66 °F 54 °F 51 °F (1998)
Cooling Degree Days 10    
Growing Degree Days 25 (Base 50)    
Moisture  
Dew Point 64 °F    
Average Humidity 75    
Maximum Humidity 94    
Minimum Humidity 45    
Precipitation  
Precipitation 0.00 in - - ()
Sea Level Pressure  
Sea Level Pressure 30.11 in    
Wind  
Wind Speed 2 mph ()    
Max Wind Speed 5 mph    
Max Gust Speed -    
Visibility 5.7 miles    
Events      
Averages and records for this station are not official NWS values.
T = Trace of Precipitation, MM = Missing Value Source: Averaged Metar Reports

Daily Weather History Graph

Daily Weather History Graph

Search for Another Location

Airport:

Trip Planner

Search our weather history database for the weather conditions in past years. The results will help you decide how hot, cold, wet, or windy it might be!

Date:

Astronomy

Oct. 06, 2012 Rise Set
Actual Time 8:22 AM CEST 7:57 PM CEST
Civil Twilight 7:56 AM CEST 8:23 PM CEST
Nautical Twilight 7:26 AM CEST 8:54 PM CEST
Astronomical Twilight 6:56 AM CEST 9:24 PM CEST
Moon No Moon Rise 2:00 PM CEST (10/6)
Length of Visible Light 12h 27m
Length of Day
11h 35m
Waning Gibbous, 68% of the Moon is Illuminated
Oct 6
Waning Gibbous
Oct 8
Last Quarter
Oct 15
New
Oct 22
First Quarter
Oct 29
Full

Hourly Weather History & Observations

Time (CEST) Temp. Heat Index Dew Point Humidity Pressure Visibility Wind Dir Wind Speed Gust Speed Precip Events Conditions
12:00 AM 69.8 °F - 66.2 °F 88% 30.06 in 6.2 mi West 4.6 mph - N/A   Scattered Clouds
1:00 AM 68.0 °F - 66.2 °F 94% 30.06 in 6.2 mi West 4.6 mph - N/A   Scattered Clouds
2:00 AM 68.0 °F - 64.4 °F 88% 30.06 in 6.2 mi Variable 2.3 mph - N/A   Scattered Clouds
3:00 AM 68.0 °F - 64.4 °F 88% 30.09 in 6.2 mi Variable 2.3 mph - N/A   Scattered Clouds
4:00 AM 66.2 °F - 64.4 °F 94% 30.09 in 6.2 mi Variable 2.3 mph - N/A   Scattered Clouds
5:00 AM 66.2 °F - 64.4 °F 94% 30.09 in 6.2 mi SSW 3.5 mph - N/A   Scattered Clouds
6:00 AM 66.2 °F - 64.4 °F 94% 30.09 in 6.2 mi East 1.2 mph - N/A   Scattered Clouds
7:00 AM 66.2 °F - 64.4 °F 94% 30.09 in 6.2 mi Calm Calm - N/A   Scattered Clouds
8:00 AM 68.0 °F - 64.4 °F 88% 30.09 in 5.0 mi Calm Calm - N/A   Scattered Clouds
9:00 AM 66.2 °F - 64.4 °F 94% 30.12 in 4.3 mi Calm Calm - N/A   Scattered Clouds
10:00 AM 69.8 °F - 66.2 °F 88% 30.15 in 3.7 mi Variable 1.2 mph - N/A   Partly Cloudy
11:00 AM 73.4 °F - 64.4 °F 73% 30.15 in 5.0 mi Calm Calm - N/A   Partly Cloudy
12:00 PM 75.2 °F - 66.2 °F 73% 30.15 in 5.0 mi Variable 3.5 mph - N/A   Scattered Clouds
1:00 PM 77.0 °F - 66.2 °F 69% 30.15 in 6.2 mi Variable 1.2 mph - N/A   Scattered Clouds
2:00 PM 80.6 °F 82.3 °F 64.4 °F 58% 30.12 in 6.2 mi North 4.6 mph - N/A   Scattered Clouds
3:00 PM 82.4 °F 83.4 °F 62.6 °F 51% 30.12 in 6.2 mi Variable 2.3 mph - N/A   Partly Cloudy
4:00 PM 82.4 °F 83.4 °F 62.6 °F 51% 30.12 in - Variable 3.5 mph - N/A   Clear
5:00 PM 84.2 °F 84.4 °F 60.8 °F 45% 30.09 in - Variable 1.2 mph - N/A   Clear
6:00 PM 82.4 °F 82.9 °F 60.8 °F 48% 30.09 in - Variable 1.2 mph - N/A   Clear
7:00 PM 82.4 °F 82.9 °F 60.8 °F 48% 30.09 in - NNW 4.6 mph - N/A   Clear
8:00 PM 77.0 °F - 62.6 °F 61% 30.12 in - NW 4.6 mph - N/A   Clear
9:00 PM 73.4 °F - 60.8 °F 65% 30.12 in - West 3.5 mph - N/A   Clear
10:00 PM 71.6 °F - 62.6 °F 73% 30.12 in - West 3.5 mph - N/A   Clear
11:00 PM 69.8 °F - 62.6 °F 78% 30.15 in - Variable 1.2 mph - N/A   Clear